Hourly Data Report for September 18, 2017

TORONTO CITY
ONTARIO

43°40'00.000" N
79°24'00.000" W
112.50 m
6158355
71508
XTO

Download Data

Hourly Data (September 2017)
Hourly Data Report for September 18, 2017
TIME
LST
Temp Definition
°C
Dew Point Definition
°C
Rel Hum Definition
%
Precip. Amount Definition
mm

Wind Dir Definition
10's deg

Wind Spd Definition
km/h
Visibility Definition
km
Stn Press Definition
kPa
Hmdx Definition


Wind Chill Definition


Weather Definition


00:00 20.6 17.9 85 0.0 LegendMM LegendMM   100.48 27   LegendNANA
01:00 19.3 16.8 85 0.0 LegendMM LegendMM   100.47     LegendNANA
02:00 18.9 16.8 88 0.0 LegendMM LegendMM   100.43     LegendNANA
03:00 19.1 17.4 90 0.0 LegendMM LegendMM   100.41     LegendNANA
04:00 18.6 16.9 90 0.0 LegendMM LegendMM   100.43     LegendNANA
05:00 18.3 16.6 90 0.0 LegendMM LegendMM   100.44     LegendNANA
06:00 18.3 16.7 90 0.0 LegendMM LegendMM   100.47     LegendNANA
07:00 19.3 17.4 89 0.0 LegendMM LegendMM   100.49     LegendNANA
08:00 21.3 17.9 81 0.0 LegendMM LegendMM   100.48 27   LegendNANA
09:00 22.0 17.5 76 0.0 LegendMM LegendMM   100.48 28   LegendNANA
10:00 23.2 17.2 69 0.0 LegendMM LegendMM   100.48 29   LegendNANA
11:00 23.2 16.2 65 0.0 LegendMM LegendMM   100.52 28   LegendNANA
12:00 24.5 16.1 60 0.0 LegendMM LegendMM   100.47 29   LegendNANA
13:00 25.4 16.4 58 0.0 LegendMM LegendMM   100.43 30   LegendNANA
14:00 25.5 16.6 58 0.0 LegendMM LegendMM   100.39 31   LegendNANA
15:00 26.2 16.9 57 0.0 LegendMM LegendMM   100.35 31   LegendNANA
16:00 25.7 16.9 58 0.0 LegendMM LegendMM   100.33 31   LegendNANA
17:00 24.2 17.0 64 0.0 LegendMM LegendMM   100.31 29   LegendNANA
18:00 22.9 16.7 68 0.0 LegendMM LegendMM   100.32 28   LegendNANA
19:00 22.1 16.1 69 0.0 LegendMM LegendMM   100.36 27   LegendNANA
20:00 22.0 16.2 69 0.0 LegendMM LegendMM   100.40 27   LegendNANA
21:00 21.7 16.1 71 0.0 LegendMM LegendMM   100.37 26   LegendNANA
22:00 21.6 16.3 72 0.0 LegendMM LegendMM   100.37 26   LegendNANA
23:00 21.5 16.9 75 0.0 LegendMM LegendMM   100.35 27   LegendNANA

Notes on Data Quality.

Legend

  • E = Estimated
  • M = Missing
  • NA = Not Available*
  • [empty] = Indicates an unobserved value
Date modified: